Location: Zürich
(47.3769°N, 8.5417°E)
Time: 09:41:32
(UTC+02:00)

ISS - Pass Details

Date: 23 May 2021
Orbit: 417 x 422 km, 51.6° (Epoch: 13 June)

Event Time Altitude Azimuth Distance (km) Brightness Sun altitude
Rises 22:09:05 0° 281° (WNW) 2,363 1.1 -9.2°
Reaches altitude 10° 22:11:16 10° 290° (WNW) 1,500 0.2 -9.5°
Maximum altitude 22:14:27 38° 1° (N) 662 -2.3 -9.8°
Drops below altitude 10° 22:17:37 10° 71° (ENE) 1,503 -1.2 -10.2°
Enters shadow 22:19:30 - 79° (ENE) 2,240 -0.4 -10.4°
